When you browse on this site, cookies collect data to enhance your experience and personalize the content and advertising you see.
Visit our Privacy Policy to learn more. By continuing to use the site, you agree to this use of cookies and data.
  • In Lithuania
  • List of Countries
  • For 7 days
  • Water Temperature
  • Weather Map
  • Weather Widgets
  • user-avatar
    Login

    Hourly Weather Devyasilka

    Today, 24 August, Saturday

    Time Temperature Precipitation Wind Pressure Humidity
    00:00 +12°C° 0 mm 2 mps 745 mmHg 92%
    01:00 +12°C° 0 mm 2 mps 745 mmHg 93%
    02:00 +12°C° 0 mm 2 mps 745 mmHg 94%
    03:00 +11°C° 0 mm 3 mps 744 mmHg 94%
    04:00 +11°C° 0 mm 3 mps 744 mmHg 93%
    05:00 +12°C° 0 mm 3 mps 744 mmHg 93%
    06:00 +13°C° 0 mm 3 mps 744 mmHg 86%
    07:00 +15°C° 0 mm 4 mps 743 mmHg 80%
    08:00 +17°C° 0 mm 4 mps 744 mmHg 73%
    09:00 +18°C° 0 mm 4 mps 743 mmHg 68%
    10:00 +19°C° 0 mm 5 mps 743 mmHg 64%
    11:00 +20°C° 0 mm 5 mps 743 mmHg 60%
    12:00 +20°C° 0 mm 4 mps 743 mmHg 63%
    13:00 +20°C° 0 mm 4 mps 743 mmHg 66%
    14:00 +20°C° 0 mm 4 mps 742 mmHg 69%
    15:00 +19°C° 0.2 mm 3 mps 742 mmHg 74%
    16:00 +19°C° 0.2 mm 3 mps 742 mmHg 78%
    17:00 +18°C° 0.2 mm 3 mps 742 mmHg 83%
    18:00 +17°C° 0 mm 3 mps 743 mmHg 87%
    19:00 +15°C° 0 mm 2 mps 743 mmHg 91%
    20:00 +14°C° 0 mm 2 mps 743 mmHg 96%
    21:00 +14°C° 0 mm 2 mps 743 mmHg 95%
    22:00 +13°C° 0 mm 2 mps 743 mmHg 95%
    23:00 +13°C° 0 mm 2 mps 744 mmHg 95%

    Tomorrow, 25 August, Sunday

    Time Temperature Precipitation Wind Pressure Humidity
    00:00 +12°C° 0 mm 1 mps 744 mmHg 95%
    01:00 +11°C° 0 mm 1 mps 744 mmHg 96%
    02:00 +11°C° 0 mm 1 mps 745 mmHg 96%
    03:00 +10°C° 0 mm 1 mps 745 mmHg 96%
    04:00 +10°C° 0 mm 1 mps 745 mmHg 96%
    05:00 +10°C° 0 mm 1 mps 745 mmHg 97%
    06:00 +11°C° 0 mm 1 mps 745 mmHg 93%
    07:00 +13°C° 0 mm 1 mps 746 mmHg 89%
    08:00 +14°C° 0 mm 1 mps 746 mmHg 85%
    09:00 +16°C° 0 mm 1 mps 746 mmHg 76%
    10:00 +19°C° 0 mm 1 mps 746 mmHg 68%
    11:00 +20°C° 0 mm 1 mps 746 mmHg 59%
    12:00 +21°C° 0 mm 1 mps 747 mmHg 56%
    13:00 +22°C° 0 mm 1 mps 747 mmHg 53%
    14:00 +23°C° 0 mm 1 mps 747 mmHg 51%
    15:00 +22°C° 0 mm 1 mps 747 mmHg 55%
    16:00 +22°C° 0 mm 1 mps 746 mmHg 60%
    17:00 +21°C° 0 mm 1 mps 746 mmHg 65%
    18:00 +17°C° 0 mm 0 mps 746 mmHg 71%
    19:00 +15°C° 0 mm 0 mps 746 mmHg 77%
    20:00 +12°C° 0 mm 0 mps 746 mmHg 82%
    21:00 +12°C° 0 mm 0 mps 746 mmHg 85%
    22:00 +11°C° 0 mm 0 mps 747 mmHg 87%
    23:00 +11°C° 0 mm 0 mps 747 mmHg 89%

    Day after tomorrow, 26 August, Monday

    Time Temperature Precipitation Wind Pressure Humidity
    00:00 +10°C° 0 mm 0 mps 747 mmHg 90%
    01:00 +10°C° 0 mm 0 mps 747 mmHg 91%
    02:00 +10°C° 0 mm 0 mps 747 mmHg 92%
    03:00 +11°C° 0 mm 1 mps 747 mmHg 93%
    04:00 +11°C° 0 mm 1 mps 746 mmHg 94%
    05:00 +10°C° 0 mm 1 mps 746 mmHg 94%
    06:00 +12°C° 0 mm 1 mps 746 mmHg 87%
    07:00 +14°C° 0 mm 1 mps 746 mmHg 80%
    08:00 +16°C° 0 mm 1 mps 746 mmHg 73%
    09:00 +18°C° 0 mm 2 mps 746 mmHg 67%
    10:00 +19°C° 0 mm 2 mps 746 mmHg 61%
    11:00 +21°C° 0 mm 2 mps 746 mmHg 55%
    12:00 +21°C° 0 mm 2 mps 745 mmHg 54%
    13:00 +22°C° 0 mm 3 mps 745 mmHg 53%
    14:00 +22°C° 0 mm 3 mps 745 mmHg 52%
    15:00 +22°C° 0 mm 3 mps 744 mmHg 57%
    16:00 +21°C° 0 mm 2 mps 744 mmHg 62%
    17:00 +21°C° 0 mm 2 mps 743 mmHg 67%
    18:00 +19°C° 0 mm 2 mps 743 mmHg 73%
    19:00 +17°C° 0 mm 2 mps 743 mmHg 80%
    20:00 +15°C° 0 mm 2 mps 742 mmHg 87%
    21:00 +15°C° 0 mm 2 mps 742 mmHg 87%
    22:00 +15°C° 0 mm 2 mps 742 mmHg 88%
    23:00 +15°C° 0 mm 2 mps 742 mmHg 89%

    27 August, Tuesday

    Time Temperature Precipitation Wind Pressure Humidity
    00:00 +15°C° 0 mm 2 mps 742 mmHg 91%
    01:00 +15°C° 0 mm 2 mps 741 mmHg 93%
    02:00 +14°C° 0 mm 2 mps 741 mmHg 95%
    03:00 +14°C° 0 mm 2 mps 741 mmHg 96%
    04:00 +14°C° 0 mm 2 mps 741 mmHg 97%
    05:00 +14°C° 0 mm 2 mps 741 mmHg 98%
    06:00 +15°C° 0 mm 2 mps 741 mmHg 95%
    07:00 +16°C° 0 mm 3 mps 741 mmHg 93%
    08:00 +17°C° 0 mm 3 mps 741 mmHg 90%
    09:00 +17°C° 0.1 mm 3 mps 741 mmHg 84%
    10:00 +18°C° 0.1 mm 3 mps 741 mmHg 79%
    11:00 +19°C° 0.1 mm 4 mps 741 mmHg 74%
    12:00 +19°C° 0 mm 4 mps 741 mmHg 68%
    13:00 +20°C° 0 mm 4 mps 741 mmHg 62%
    14:00 +20°C° 0 mm 4 mps 742 mmHg 57%
    15:00 +20°C° 0 mm 4 mps 742 mmHg 60%
    16:00 +19°C° 0 mm 3 mps 742 mmHg 63%
    17:00 +19°C° 0 mm 3 mps 742 mmHg 67%
    18:00 +17°C° 0 mm 3 mps 742 mmHg 73%
    19:00 +14°C° 0 mm 3 mps 742 mmHg 79%
    20:00 +13°C° 0 mm 2 mps 742 mmHg 85%
    21:00 +12°C° 0 mm 2 mps 743 mmHg 87%
    22:00 +10°C° 0 mm 2 mps 743 mmHg 90%
    23:00 +9°C° 0 mm 2 mps 743 mmHg 92%

    28 August, Wednesday

    Time Temperature Precipitation Wind Pressure Humidity
    00:00 +9°C° 0 mm 2 mps 744 mmHg 90%
    01:00 +8°C° 0 mm 2 mps 744 mmHg 89%
    02:00 +7°C° 0 mm 2 mps 744 mmHg 87%
    03:00 +6°C° 0 mm 2 mps 744 mmHg 86%
    04:00 +5°C° 0 mm 2 mps 745 mmHg 86%
    05:00 +5°C° 0 mm 2 mps 745 mmHg 85%
    06:00 +6°C° 0 mm 2 mps 745 mmHg 77%
    07:00 +7°C° 0 mm 2 mps 745 mmHg 68%
    08:00 +9°C° 0 mm 3 mps 746 mmHg 60%
    09:00 +10°C° 0 mm 3 mps 746 mmHg 55%
    10:00 +11°C° 0 mm 3 mps 746 mmHg 50%
    11:00 +13°C° 0 mm 3 mps 746 mmHg 44%
    12:00 +13°C° 0 mm 3 mps 746 mmHg 43%
    13:00 +14°C° 0 mm 3 mps 746 mmHg 42%
    14:00 +16°C° 0 mm 3 mps 745 mmHg 41%
    15:00 +14°C° 0 mm 3 mps 745 mmHg 45%
    16:00 +15°C° 0 mm 2 mps 745 mmHg 50%
    17:00 +15°C° 0 mm 2 mps 745 mmHg 54%
    18:00 +13°C° 0 mm 2 mps 745 mmHg 60%
    19:00 +11°C° 0 mm 1 mps 745 mmHg 67%
    20:00 +9°C° 0 mm 1 mps 745 mmHg 74%
    21:00 +8°C° 0 mm 1 mps 746 mmHg 76%
    22:00 +7°C° 0 mm 1 mps 746 mmHg 79%
    23:00 +7°C° 0 mm 1 mps 746 mmHg 81%

    29 August, Thursday

    Time Temperature Precipitation Wind Pressure Humidity
    00:00 +6°C° 0 mm 1 mps 746 mmHg 82%
    01:00 +6°C° 0 mm 1 mps 746 mmHg 83%
    02:00 +6°C° 0 mm 1 mps 746 mmHg 84%
    03:00 +5°C° 0 mm 1 mps 746 mmHg 84%
    04:00 +5°C° 0 mm 1 mps 746 mmHg 84%
    05:00 +5°C° 0 mm 1 mps 746 mmHg 84%
    06:00 +7°C° 0 mm 1 mps 746 mmHg 77%
    07:00 +9°C° 0 mm 1 mps 747 mmHg 69%
    08:00 +12°C° 0 mm 1 mps 747 mmHg 61%
    09:00 +12°C° 0 mm 2 mps 747 mmHg 59%
    10:00 +13°C° 0 mm 2 mps 747 mmHg 57%
    11:00 +14°C° 0 mm 2 mps 746 mmHg 55%
    12:00 +14°C° 0 mm 2 mps 746 mmHg 59%
    13:00 +13°C° 0 mm 2 mps 746 mmHg 62%
    14:00 +13°C° 0 mm 2 mps 746 mmHg 65%
    15:00 +13°C° 0 mm 2 mps 746 mmHg 66%
    16:00 +14°C° 0 mm 2 mps 746 mmHg 67%
    17:00 +14°C° 0 mm 2 mps 746 mmHg 68%
    18:00 +13°C° 0 mm 1 mps 745 mmHg 76%
    19:00 +11°C° 0 mm 1 mps 745 mmHg 84%
    20:00 +9°C° 0 mm 1 mps 745 mmHg 92%
    21:00 +9°C° 0 mm 1 mps 745 mmHg 92%
    22:00 +7°C° 0 mm 0 mps 745 mmHg 93%
    23:00 +7°C° 0 mm 0 mps 745 mmHg 94%
    Show more